Mayo, Yukon Territory

8:22 AM PDT on May 23, 2017 (GMT -0700)
Mayo

Weather History for CYMA - February, 2014

Change the Weather History Date:

Thursday, February 6, 2014

  Actual Average Record
Temperature  
Mean Temperature -20 °F -  
Max Temperature -8 °F 12 °F 39 °F (1997)
Min Temperature -32 °F -11 °F -61 °F (2008)
Degree Days  
Heating Degree Days 85    
Moisture  
Dew Point -24 °F    
Average Humidity 73    
Maximum Humidity 84    
Minimum Humidity 56    
Precipitation  
Precipitation 0.08 in 0.02 in - ()
Sea Level Pressure  
Sea Level Pressure 30.50 in    
Wind  
Wind Speed 1 mph ()    
Max Wind Speed 4 mph    
Max Gust Speed -    
Visibility 10.3 miles    
Events Snow    
Averages and records for this station are not official NWS values.
T = Trace of Precipitation, MM = Missing Value Source: Averaged Metar Reports

Daily Weather History Graph

Daily Weather History Graph

Search for Another Location

Airport or City:

Trip Planner

Search our weather history database for the weather conditions in past years. The results will help you decide how hot, cold, wet, or windy it might be!

Date:

Astronomy

Feb. 06, 2014 Rise Set
Actual Time 9:24 AM PST 5:12 PM PST
Civil Twilight 8:30 AM PST 6:05 PM PST
Nautical Twilight 7:34 AM PST 7:01 PM PST
Astronomical Twilight 6:40 AM PST 7:56 PM PST
Moon 10:39 AM PST (2/6) 2:51 AM PST (2/6)
Length of Visible Light 9h 34m
Length of Day
7h 47m
Waxing Crescent, 50% of the Moon is Illuminated
Feb 6
Waxing Crescent
Feb 14
Full
Feb 22
Last Quarter
Mar 1
New
Mar 8
First Quarter

Hourly Weather History & Observations

Time (PST) Temp. Windchill Dew Point Humidity Pressure Visibility Wind Dir Wind Speed Gust Speed Precip Events Conditions
12:00 AM -29.2 °F - -36.4 °F 68% 30.88 in 20.0 mi Calm Calm - N/A   Clear
1:00 AM -29.2 °F - -36.4 °F 68% 30.86 in 20.0 mi Calm Calm - N/A   Clear
2:00 AM -31.0 °F - -38.2 °F 68% 30.83 in 20.0 mi Variable 2.3 mph - N/A   Clear
3:00 AM -31.0 °F - -38.2 °F 68% 30.82 in 20.0 mi Calm Calm - N/A   Scattered Clouds
4:00 AM -29 °F - -35 °F 56% 30.79 in 19 mi North 1.2 mph - -  
4:00 AM -29.2 °F - -34.6 °F 75% 30.79 in 20.0 mi Calm Calm - N/A   Mostly Cloudy
5:00 AM -23.8 °F - -31.0 °F 69% 30.76 in 20.0 mi Calm Calm - N/A   Mostly Cloudy
6:00 AM -23.8 °F - -29.2 °F 76% 30.73 in 20.0 mi East 2.3 mph - N/A   Mostly Cloudy
6:15 AM -23.8 °F - -29.2 °F 76% 30.73 in 20.0 mi East 2.3 mph - N/A Snow Light Snow
6:51 AM -23.8 °F - -29.2 °F 76% 30.70 in 20.0 mi Calm Calm - N/A   Overcast
7:00 AM -22.0 °F -33.0 °F -29.2 °F 69% 30.70 in 8.0 mi North 3.5 mph - N/A   Overcast
8:00 AM -22.0 °F -33.0 °F -29.2 °F 69% 30.66 in 20.0 mi ENE 3.5 mph - N/A   Scattered Clouds
9:00 AM -22.0 °F - -27.4 °F 76% 30.63 in 10.0 mi Calm Calm - N/A   Mostly Cloudy
9:23 AM -20.2 °F - -25.6 °F 76% 30.61 in 10.0 mi Calm Calm - N/A Snow Light Snow
10:00 AM -20 °F - -26 °F 59% 30.59 in 10 mi East 2.3 mph - -   Overcast
10:00 AM -20.2 °F - -25.6 °F 76% 30.59 in 10.0 mi East 2.3 mph - N/A Snow Light Snow
11:00 AM -18.4 °F - -23.8 °F 76% 30.54 in 8.0 mi Variable 2.3 mph - N/A Snow Light Snow
12:00 PM -16.6 °F - -22.0 °F 76% 30.48 in 5.0 mi Calm Calm - N/A Snow Light Snow
1:00 PM -14.8 °F - -20.2 °F 77% 30.43 in 6.0 mi NE 2.3 mph - N/A Snow Light Snow
2:00 PM -13.0 °F - -18.4 °F 77% 30.39 in 10.0 mi East 2.3 mph - N/A Snow Light Snow
3:00 PM -11.2 °F -20.6 °F -18.4 °F 70% 30.33 in 10.0 mi ENE 3.5 mph - N/A Snow Light Snow
4:00 PM -11 °F - -16 °F 65% 30.29 in 4 mi ENE 3.5 mph - -   Overcast
4:00 PM -11.2 °F -20.6 °F -16.6 °F 77% 30.29 in 4.0 mi ENE 3.5 mph - N/A Snow Light Snow
5:00 PM -11.2 °F - -16.6 °F 77% 30.25 in 0.8 mi ENE 2.3 mph - N/A Snow Light Snow
6:00 PM -9.4 °F -18.6 °F -14.8 °F 77% 30.23 in 0.8 mi East 3.5 mph - N/A Snow Light Snow
6:49 PM -9.4 °F - -14.8 °F 77% 30.21 in 2.0 mi East 2.3 mph - N/A Snow Light Snow
7:00 PM -9.4 °F - -14.8 °F 77% 30.20 in 2.0 mi ESE 2.3 mph - N/A Snow Light Snow
7:38 PM -9.4 °F - -14.8 °F 77% 30.18 in 3.0 mi Calm Calm - N/A Snow Light Snow
8:00 PM -9.4 °F - -14.8 °F 77% 30.19 in 3.0 mi WNW 2.3 mph - N/A Snow Light Snow
9:00 PM -9.4 °F - -13.0 °F 84% 30.19 in 3.0 mi Calm Calm - N/A Snow Light Snow
10:00 PM -9 °F - -14 °F 68% 30.19 in 4 mi ESE 2.3 mph - -   Overcast
10:00 PM -9.4 °F - -13.0 °F 84% 30.19 in 4.0 mi Calm Calm - N/A Snow Light Snow
11:00 PM -9.4 °F - -13.0 °F 84% 30.21 in 3.0 mi Variable 2.3 mph - N/A Snow Light Snow